Grosse Ile, MI

8:10 AM EDT on August 17, 2017 (GMT -0400)
Grosse Ile Municipal

Weather History for KONZ - March, 2012

Change the Weather History Date:

Tuesday, March 13, 2012

  Actual Average (KDTW) Record (KDTW)
Temperature  
Mean Temperature 58 °F -  
Max Temperature 66 °F 42 °F 73 °F (1990)
Min Temperature 51 °F 27 °F 3 °F (2014)
Degree Days  
Heating Degree Days 6    
Growing Degree Days 8 (Base 50)    
Moisture  
Dew Point 44 °F    
Average Humidity 65    
Maximum Humidity 94    
Minimum Humidity 15    
Precipitation  
Precipitation 0.11 in - - ()
Sea Level Pressure  
Sea Level Pressure 29.95 in    
Wind  
Wind Speed 9 mph (WSW)    
Max Wind Speed 17 mph    
Max Gust Speed 25 mph    
Visibility 10 miles    
Events Rain    
Averages and records for this station are not official NWS values.
T = Trace of Precipitation, MM = Missing Value Source: NWS Daily Summary

Daily Weather History Graph

Daily Weather History Graph

Search for Another Location

Airport or City:

Trip Planner

Search our weather history database for the weather conditions in past years. The results will help you decide how hot, cold, wet, or windy it might be!

Date:

Astronomy

Mar. 13, 2012 Rise Set
Actual Time 7:47 AM EDT 7:37 PM EDT
Civil Twilight 7:19 AM EDT 8:05 PM EDT
Nautical Twilight 6:46 AM EDT 8:37 PM EDT
Astronomical Twilight 6:14 AM EDT 9:10 PM EDT
Moon 1:14 AM EDT (3/13) 10:52 AM EDT (3/13)
Length of Visible Light 12h 46m
Length of Day
11h 50m
Waning Gibbous, 66% of the Moon is Illuminated
Mar 13
Waning Gibbous
Mar 14
Last Quarter
Mar 22
New
Mar 30
First Quarter
Apr 6
Full

Hourly Weather History & Observations

Time (EDT) Temp. Dew Point Humidity Pressure Visibility Wind Dir Wind Speed Gust Speed Precip Events Conditions
12:14 AM 60.8 °F 57.2 °F 88% 29.84 in 10.0 mi SW 9.2 mph - 0.01 in Rain Light Rain
12:34 AM 60.8 °F 57.2 °F 88% 29.85 in 10.0 mi West 11.5 mph - 0.09 in Rain Light Rain
12:54 AM 59.0 °F 55.4 °F 88% 29.85 in 10.0 mi WNW 5.8 mph - 0.10 in Rain Light Rain
1:14 AM 57.2 °F 55.4 °F 94% 29.86 in 7.0 mi NW 8.1 mph - N/A Rain Rain
1:33 AM 55.4 °F 51.8 °F 88% 29.85 in 10.0 mi WNW 5.8 mph - N/A   Mostly Cloudy
1:54 AM 55.4 °F 53.6 °F 94% 29.86 in 10.0 mi Calm Calm - N/A Rain Light Rain
2:13 AM 55.4 °F 51.8 °F 88% 29.87 in 10.0 mi West 5.8 mph - 0.01 in Rain Rain
2:34 AM 55.4 °F 51.8 °F 88% 29.89 in 10.0 mi WSW 5.8 mph - 0.01 in   Overcast
2:54 AM 55.4 °F 51.8 °F 88% 29.88 in 10.0 mi WSW 3.5 mph - 0.01 in Rain Light Rain
3:14 AM 55.4 °F 51.8 °F 88% 29.89 in 10.0 mi WSW 4.6 mph - N/A   Overcast
3:34 AM 55.4 °F 51.8 °F 88% 29.90 in 10.0 mi WSW 5.8 mph - N/A   Overcast
3:54 AM 55.4 °F 51.8 °F 88% 29.90 in 10.0 mi West 6.9 mph - N/A   Overcast
4:15 AM 55.4 °F 51.8 °F 88% 29.91 in 10.0 mi WSW 5.8 mph - N/A   Mostly Cloudy
4:34 AM 53.6 °F 50.0 °F 88% 29.91 in 10.0 mi WSW 4.6 mph - N/A   Scattered Clouds
4:54 AM 53.6 °F 48.2 °F 82% 29.92 in 10.0 mi SW 4.6 mph - N/A   Clear
5:14 AM 53.6 °F 48.2 °F 82% 29.92 in 10.0 mi WSW 4.6 mph - N/A   Clear
5:34 AM 51.8 °F 48.2 °F 88% 29.93 in 10.0 mi WSW 4.6 mph - N/A   Clear
5:54 AM 51.8 °F 48.2 °F 88% 29.93 in 10.0 mi WSW 3.5 mph - N/A   Scattered Clouds
6:14 AM 51.8 °F 48.2 °F 88% 29.94 in 10.0 mi WSW 5.8 mph - N/A   Overcast
6:34 AM 53.6 °F 48.2 °F 82% 29.94 in 10.0 mi WSW 6.9 mph - N/A   Overcast
6:54 AM 51.8 °F 48.2 °F 88% 29.95 in 10.0 mi SW 4.6 mph - N/A   Scattered Clouds
7:14 AM 51.8 °F 48.2 °F 88% 29.95 in 10.0 mi SW 4.6 mph - N/A   Clear
7:34 AM 51.8 °F 48.2 °F 88% 29.96 in 10.0 mi SW 5.8 mph - N/A   Clear
7:54 AM 51.8 °F 48.2 °F 88% 29.96 in 10.0 mi SW 5.8 mph - N/A   Clear
8:54 AM 53.6 °F 48.2 °F 82% 29.98 in 10.0 mi WSW 5.8 mph - N/A   Clear
9:15 AM 55.4 °F 50.0 °F 82% 29.98 in 10.0 mi WSW 6.9 mph - N/A   Clear
9:34 AM 55.4 °F 50.0 °F 82% 29.99 in 10.0 mi WSW 8.1 mph - N/A   Clear
9:54 AM 57.2 °F 50.0 °F 77% 29.98 in 10.0 mi WSW 10.4 mph - N/A   Clear
10:14 AM 57.2 °F 51.8 °F 82% 29.98 in 10.0 mi WSW 9.2 mph - N/A   Clear
10:34 AM 57.2 °F 51.8 °F 82% 29.98 in 10.0 mi WSW 9.2 mph - N/A   Clear
10:54 AM 59.0 °F 50.0 °F 72% 29.98 in 10.0 mi WSW 16.1 mph 19.6 mph N/A   Clear
11:14 AM 60.8 °F 51.8 °F 72% 29.98 in 10.0 mi WSW 12.7 mph - N/A   Clear
11:34 AM 60.8 °F 51.8 °F 72% 29.98 in 10.0 mi WSW 16.1 mph 21.9 mph N/A   Clear
11:54 AM 62.6 °F 51.8 °F 68% 29.98 in 10.0 mi West 11.5 mph 19.6 mph N/A   Scattered Clouds
12:14 PM 60.8 °F 50.0 °F 68% 29.99 in 10.0 mi West 17.3 mph 25.3 mph N/A   Scattered Clouds
12:34 PM 62.6 °F 51.8 °F 68% 29.98 in 10.0 mi West 11.5 mph 19.6 mph N/A   Scattered Clouds
12:54 PM 62.6 °F 51.8 °F 68% 29.98 in 10.0 mi West 12.7 mph - N/A   Clear
1:14 PM 64.4 °F 48.2 °F 56% 29.99 in 10.0 mi West 11.5 mph 18.4 mph N/A   Clear
1:34 PM 64.4 °F 46.4 °F 52% 29.99 in 10.0 mi West 16.1 mph 19.6 mph N/A   Clear
1:54 PM 64.4 °F 44.6 °F 49% 29.98 in 10.0 mi West 16.1 mph 24.2 mph N/A   Clear
2:14 PM 64.4 °F 42.8 °F 45% 29.98 in 10.0 mi West 16.1 mph 25.3 mph N/A   Clear
2:34 PM 64.4 °F 44.6 °F 49% 29.98 in 10.0 mi WSW 13.8 mph 20.7 mph N/A   Clear
2:54 PM 66.2 °F 42.8 °F 43% 29.97 in 10.0 mi West 13.8 mph 23.0 mph N/A   Clear
3:14 PM 64.4 °F 39.2 °F 40% 29.97 in 10.0 mi West 13.8 mph 23.0 mph N/A   Clear
3:34 PM 66.2 °F 37.4 °F 35% 29.97 in 10.0 mi West 17.3 mph 24.2 mph N/A   Clear
3:54 PM 66.2 °F 37.4 °F 35% 29.97 in 10.0 mi WSW 17.3 mph 21.9 mph N/A   Clear
4:14 PM 66.2 °F 33.8 °F 30% 29.98 in 10.0 mi West 15.0 mph 21.9 mph N/A   Clear
4:34 PM 66.2 °F 32.0 °F 28% 29.98 in 10.0 mi West 10.4 mph 21.9 mph N/A   Clear
4:54 PM 66.2 °F 28.4 °F 24% 29.99 in 10.0 mi West 11.5 mph 21.9 mph N/A   Clear
5:13 PM 66.2 °F 28.4 °F 24% 29.99 in 10.0 mi West 13.8 mph 19.6 mph N/A   Clear
5:34 PM 66.2 °F 23.0 °F 19% 29.99 in 10.0 mi West 13.8 mph 24.2 mph N/A   Clear
5:54 PM 66.2 °F 17.6 °F 15% 30.00 in 10.0 mi West 16.1 mph 21.9 mph N/A   Clear
6:14 PM 64.4 °F 17.6 °F 16% 30.00 in 10.0 mi West 13.8 mph 20.7 mph N/A   Clear
6:34 PM 64.4 °F 21.2 °F 19% 30.01 in 10.0 mi WNW 8.1 mph - N/A   Clear
6:54 PM 64.4 °F 21.2 °F 19% 30.02 in 10.0 mi WNW 11.5 mph 16.1 mph N/A   Clear
7:14 PM 62.6 °F 19.4 °F 19% 30.03 in 10.0 mi WNW 9.2 mph 17.3 mph N/A   Clear
7:34 PM 60.8 °F 21.2 °F 22% 30.03 in 10.0 mi WNW 4.6 mph - N/A   Clear
7:54 PM 60.8 °F 21.2 °F 22% 30.04 in 10.0 mi WNW 4.6 mph - N/A   Clear
8:14 PM 57.2 °F 21.2 °F 25% 30.05 in 10.0 mi West 4.6 mph - N/A   Clear
8:34 PM 57.2 °F 19.4 °F 23% 30.05 in 10.0 mi West 6.9 mph - N/A   Clear
8:53 PM 57.2 °F 21.2 °F 25% 30.06 in 10.0 mi West 4.6 mph - N/A   Clear
9:14 PM 57.2 °F 21.2 °F 25% 30.07 in 10.0 mi Calm Calm - N/A   Clear
9:34 PM 57.2 °F 21.2 °F 25% 30.08 in 10.0 mi WNW 3.5 mph - N/A   Clear
9:54 PM 55.4 °F 21.2 °F 26% 30.09 in 10.0 mi Calm Calm - N/A   Clear
10:14 PM 55.4 °F 21.2 °F 26% 30.09 in 10.0 mi West 3.5 mph - N/A   Clear
10:34 PM 53.6 °F 21.2 °F 28% 30.09 in 10.0 mi West 3.5 mph - N/A   Clear
10:54 PM 53.6 °F 21.2 °F 28% 30.10 in 10.0 mi WNW 3.5 mph - N/A   Clear
11:14 PM 50.0 °F 26.6 °F 40% 30.10 in 10.0 mi Calm Calm - N/A   Clear
11:34 PM 48.2 °F 30.2 °F 50% 30.10 in 10.0 mi WNW 3.5 mph - N/A   Clear
11:54 PM 50.0 °F 24.8 °F 37% 30.10 in 10.0 mi WNW 3.5 mph - N/A   Clear